CDT,Max TemperatureF,Mean TemperatureF,Min TemperatureF,Max Dew PointF,MeanDew PointF,Min DewpointF,Max Humidity, Mean Humidity, Min Humidity, Max Sea Level PressureIn, Mean Sea Level PressureIn, Min Sea Level PressureIn, Max VisibilityMiles, Mean VisibilityMiles, Min VisibilityMiles, Max Wind SpeedMPH, Mean Wind SpeedMPH, Max Gust SpeedMPH,PrecipitationIn, CloudCover, Events, WindDirDegrees
2012-10-1,79,66,53,48,45,40,74,51,29,29.94,29.88,29.85,10,10,10,21,8,31,0.00,1,,325
2012-10-2,75,60,44,42,40,36,77,53,28,29.98,29.92,29.86,10,10,10,8,4,,0.00,0,,310
2012-10-3,80,60,39,45,40,36,93,54,21,29.94,29.89,29.83,10,10,5,18,4,30,0.00,0,,172
2012-10-4,64,54,44,48,41,35,100,71,42,30.30,30.19,29.91,10,10,3,18,9,25,0.23,4,Rain-Thunderstorm,325
2012-10-5,51,44,35,38,32,27,81,63,43,30.37,30.30,30.26,10,10,8,10,5,,0.03,5,Rain,342
2012-10-6,48,41,34,28,26,25,79,61,41,30.40,30.34,30.30,10,10,10,10,5,16,0.00,2,,318
2012-10-7,57,42,27,33,27,22,85,60,32,30.34,30.23,30.11,10,10,10,14,6,17,0.00,0,,262
2012-10-8,70,54,37,36,33,30,76,51,25,30.10,29.97,29.85,10,10,10,23,10,30,0.00,0,,198
2012-10-9,60,48,37,42,34,22,71,53,27,30.15,29.96,29.86,10,10,10,16,9,23,0.00,2,,279
2012-10-10,64,47,30,31,28,24,82,51,27,30.28,30.19,30.10,10,10,10,9,5,,0.00,0,,232
2012-10-11,73,56,39,48,37,29,73,50,39,30.29,30.10,30.02,10,10,7,16,8,25,0.00,3,,139
2012-10-12,55,50,46,49,36,26,89,60,37,30.32,30.21,30.03,10,10,2,15,10,23,0.22,8,Rain-Thunderstorm,99
2012-10-13,73,63,53,65,61,50,100,91,73,29.99,29.77,29.60,10,7,1,31,11,41,0.74,7,Rain-Thunderstorm,176
2012-10-14,68,60,48,57,49,39,100,74,37,29.99,29.78,29.56,10,10,7,23,11,44,0.29,4,Rain-Thunderstorm,306
2012-10-15,75,58,42,47,44,39,89,64,32,30.00,29.91,29.78,10,10,10,9,3,,0.00,0,,137
2012-10-16,75,64,53,49,47,46,83,56,36,29.75,29.56,29.44,10,10,10,16,8,23,0.00,0,,210
2012-10-17,66,58,50,55,41,23,84,53,26,29.63,29.50,29.37,10,10,10,21,12,34,0.02,3,Rain,278
2012-10-18,54,50,46,41,31,24,83,53,35,29.67,29.62,29.59,10,10,10,29,21,45,0.05,5,Rain,285
2012-10-19,52,47,42,43,40,39,89,76,62,29.84,29.75,29.65,10,10,10,22,16,34,0.06,7,Rain,313
2012-10-20,70,51,32,44,37,31,100,80,33,29.85,29.80,29.70,10,6,0,15,3,22,0.00,0,Fog,129
2012-10-21,81,64,46,65,56,41,86,73,54,29.79,29.74,29.69,10,10,9,20,8,29,0.00,3,,136
2012-10-22,82,72,61,66,61,54,94,75,37,29.80,29.74,29.69,10,9,5,17,9,24,0.00,2,,181
2012-10-23,86,70,55,65,59,54,100,80,49,29.81,29.72,29.61,10,7,0,20,5,28,0.00,4,Fog,179
2012-10-24,82,70,55,65,61,53,97,80,54,29.75,29.70,29.64,10,8,2,20,8,26,0.00,4,,179
2012-10-25,55,46,37,52,37,27,97,78,62,30.35,29.98,29.61,10,9,5,24,14,39,0.13,8,Rain,335
2012-10-26,45,36,28,28,25,23,85,68,49,30.52,30.45,30.36,10,10,10,13,8,20,0.00,2,,332
2012-10-27,46,34,21,29,25,19,89,69,44,30.45,30.37,30.29,10,10,10,8,2,,0.00,0,,86
2012-10-28,52,41,30,30,28,26,85,62,40,30.37,30.30,30.25,10,10,10,9,3,,0.00,3,,149
2012-10-29,57,48,37,30,29,27,73,52,36,30.28,30.20,30.11,10,10,10,23,11,28,0.00,3,,140
2012-10-30,57,44,34,31,28,26,79,57,33,30.12,30.06,30.02,10,10,10,15,7,,0.00,2,,100
2012-10-31,62,46,30,33,30,25,82,58,34,30.10,30.04,29.99,10,10,10,6,2,,0.00,0,,276